Regional Weather Roundup
Issued by NWS Green Bay, WI

Home | Current Version | Previous Version | Graphics & Text | Print | Product List | Glossary Off
Versions: 1 2 3 4 5 6 7 8 9 10 11 12 13 14 15 16 17 18 19 20 21 22 23 24 25 26 27 28 29 30 31 32 33 34 35 36 37 38 39 40 41 42 43 44 45 46 47 48 49 50

660
ASUS43 KGRB 230811
RWRGRB

NORTH-CENTRAL AND NORTHEAST WISCONSIN REGIONAL WEATHER ROUNDUP
NATIONAL WEATHER SERVICE GREEN BAY WI
300 AM CDT MON OCT 23 2017

WIZ005-009-010>012-018-019-230900-
NORTH CENTRAL WISCONSIN

CITY           SKY/WX    TMP DP  RH WIND       PRES   REMARKS
IRONWOOD       CLOUDY    46  39  76 SW7       29.89S
MANITOWISH WTR PTCLDY    40  40 100 S5        29.91S
ARBOR VITAE    PTCLDY    42  40  93 S5        29.91F
EAGLE RIVER    NOT AVBL
LAND O LAKES   CLEAR     38  38 100 CALM      29.93S
RHINELANDER    CLEAR     42  40  92 SW8       29.93F
PHILLIPS       PTCLDY    42  40  93 S5        29.90S
ANTIGO         FOG       32  32 100 CALM      29.95F VSB 1/4
TOMAHAWK       CLEAR     35  34  96 CALM      29.93F FOG
MERRILL        FOG       30  30 100 CALM      29.95S VSB 3/4
$$

WIZ013-073-230900-
NORTHEAST WISCONSIN

CITY           SKY/WX    TMP DP  RH WIND       PRES   REMARKS
IRON MOUNTAIN  FOG       34  33  96 CALM      29.93F VSB 1/4
MARINETTE      CLOUDY    45  44  97 W3        29.97F FOG
OCONTO         CLOUDY    43  43 100 CALM      29.97F VSB 1/4
$$

WIZ017-030-035>037-045-230900-
CENTRAL WISCONSIN

CITY           SKY/WX    TMP DP  RH WIND       PRES   REMARKS
MEDFORD        CLEAR     38  37  97 S6        29.92F
WAUSAU         FOG       38  38 100 E3        29.94S VSB 1/4
MOSINEE        SNOW      36  36 100 S3        29.96F VSB 1/4
MARSHFIELD     CLEAR     38  36  92 S5        29.93F FOG
WISC RAPIDS    CLEAR     37  37 100 CALM      29.96F FOG
STEVENS POINT  FOG       38  38 100 CALM      29.96F VSB 1/4
WAUPACA        FOG       42  41  97 CALM      29.98S VSB<1/4
SHAWANO        FOG       44  42  95 CALM      29.97F VSB 1/4
CLINTONVILLE   NOT AVBL
WAUTOMA        FOG      N/A N/A N/A CALM      29.97F VSB 1/2
$$

WIZ038-039-048-051-230900-
FOX VALLEY

CITY           SKY/WX    TMP DP  RH WIND       PRES   REMARKS
NWS GREEN BAY  FOG       43  43 100 CALM      29.97F VSB 3/4
APPLETON       FOG       45  45 100 W6        29.95F VSB<1/4
OSHKOSH        PTCLDY    44  43  96 CALM      29.97F FOG
FOND DU LAC    CLOUDY    47  44  90 SW3       29.98F
$$

WIZ022-050-052-230900-
EAST CENTRAL WISCONSIN

CITY           SKY/WX    TMP DP  RH WIND       PRES   REMARKS
EPHRAIM        FAIR      46  46  97 W3        29.96S
WASHINGTON ISL FAIR      48  46  93 W3        29.96F
STURGEON BAY   CLOUDY    46  46 100 CALM      29.97F
MANITOWOC      FOG       46  46 100 CALM      29.98F VSB 3/4
SHEBOYGAN      CLOUDY    49  49 100 W3        29.98S
$$

LMZ563-521-522-541>543-230900-
LAKESHORE

STATION/POSITION TIME  TEMP    WIND        PRES    VSBY  WAVE
                       AIR SEA DIR/SP/G                  HT/PER
                 (UTC) (F)     (DEG/KT/KT) (MB)    (MI)  (FT/S)
SHEBOYGAN LKSHOR 0800   51     280/  3/  3 1015.1F
KEWAUNEE LKSHORE 0748   48     280/  1/  3 1014.4S
NORTHPORT PIER   0740   46      CALM  /  2 1014.9S
N MID LAKE BUOY  0750   53 56  240/  8/  8 1015.4F         2/ 6
S GREEN BAY BUOY 0800   50 58  270/  6/  8 1014.5
SISTER BAY LKSHO 0804   50     320/  8/  9   N/A
MENOMINEE LKSHOR 0748   46     280/  4/  6 1014.4F
$$




USA.gov is the U.S. government's official web portal to all federal, state and local government web resources and services.